Time,TemperatureF,DewpointF,PressureIn,WindDirection,WindDirectionDegrees,WindSpeedMPH,WindSpeedGustMPH,Humidity,HourlyPrecipIn,Conditions,Clouds,dailyrainin,SoftwareType,DateUTC
2013-08-19 00:02:00,59.0,52.0,-100.00,SE,145,1.0,1.0,77,0.00,,,-99.99,,2013-08-19 05:02:00,
2013-08-19 00:11:00,59.0,52.0,-100.00,SE,145,1.0,1.0,77,0.00,,,-99.99,,2013-08-19 05:11:00,
2013-08-19 00:52:00,57.0,51.0,-100.00,SE,145,0.0,1.0,79,0.00,,,-99.99,,2013-08-19 05:52:00,
2013-08-19 01:02:00,57.0,51.0,-100.00,SE,145,0.0,1.0,79,0.00,,,-99.99,,2013-08-19 06:02:00,
2013-08-19 01:11:00,57.0,51.0,-100.00,SE,145,0.0,1.0,79,0.00,,,-99.99,,2013-08-19 06:11:00,
2013-08-19 01:52:00,57.0,51.0,-100.00,NNE,30,0.0,1.0,81,0.00,,,-99.99,,2013-08-19 06:52:00,
2013-08-19 02:01:00,57.0,51.0,-100.00,NNE,30,0.0,1.0,81,0.00,,,-99.99,,2013-08-19 07:01:00,
2013-08-19 02:12:00,57.0,51.0,-100.00,NNE,30,0.0,1.0,81,0.00,,,-99.99,,2013-08-19 07:12:00,
2013-08-19 02:52:00,56.0,50.0,-100.00,NNE,15,0.0,1.0,81,0.00,,,-99.99,,2013-08-19 07:52:00,
2013-08-19 03:02:00,56.0,50.0,-100.00,NNE,15,0.0,1.0,81,0.00,,,-99.99,,2013-08-19 08:02:00,
2013-08-19 03:11:00,56.0,50.0,-100.00,NNE,15,0.0,1.0,81,0.00,,,-99.99,,2013-08-19 08:11:00,
2013-08-19 03:52:00,56.0,50.0,-100.00,North,0,0.0,1.0,82,0.00,,,-99.99,,2013-08-19 08:52:00,
2013-08-19 04:01:00,56.0,50.0,-100.00,North,0,0.0,1.0,82,0.00,,,-99.99,,2013-08-19 09:01:00,
2013-08-19 04:11:00,56.0,50.0,-100.00,North,0,0.0,1.0,82,0.00,,,-99.99,,2013-08-19 09:11:00,
2013-08-19 04:53:00,56.0,51.0,-100.00,North,10,0.0,1.0,82,0.00,,,-99.99,,2013-08-19 09:53:00,
2013-08-19 05:03:00,56.0,51.0,-100.00,North,10,0.0,1.0,82,0.00,,,-99.99,,2013-08-19 10:03:00,
2013-08-19 05:12:00,56.0,51.0,-100.00,North,10,0.0,1.0,82,0.00,,,-99.99,,2013-08-19 10:12:00,
2013-08-19 05:52:00,56.0,50.0,-100.00,North,10,0.0,1.0,82,0.00,,,-99.99,,2013-08-19 10:52:00,
2013-08-19 06:02:00,56.0,50.0,-100.00,North,10,0.0,1.0,82,0.00,,,-99.99,,2013-08-19 11:02:00,
2013-08-19 06:12:00,56.0,50.0,-100.00,North,10,0.0,1.0,82,0.00,,,-99.99,,2013-08-19 11:12:00,
2013-08-19 06:52:00,56.0,50.0,-100.00,East,85,0.0,1.0,82,0.00,,,-99.99,,2013-08-19 11:52:00,
2013-08-19 07:01:00,56.0,50.0,-100.00,East,85,0.0,1.0,82,0.00,,,-99.99,,2013-08-19 12:01:00,
2013-08-19 07:11:00,56.0,50.0,-100.00,East,85,0.0,1.0,82,0.00,,,-99.99,,2013-08-19 12:11:00,
2013-08-19 07:52:00,60.0,54.0,-100.00,NNW,330,0.0,1.0,82,0.00,,,-99.99,,2013-08-19 12:52:00,
2013-08-19 08:03:00,60.0,54.0,-100.00,NNW,330,0.0,1.0,82,0.00,,,-99.99,,2013-08-19 13:03:00,
2013-08-19 08:13:00,60.0,54.0,-100.00,NNW,330,0.0,1.0,82,0.00,,,-99.99,,2013-08-19 13:13:00,
2013-08-19 13:50:00,-999.0,-99.9,-100.00,WSW,240,3.0,12.0,32,0.00,,,-99.99,,2013-08-19 18:50:00,
2013-08-19 14:00:00,-999.0,-99.9,-100.00,WSW,240,3.0,12.0,32,0.00,,,-99.99,,2013-08-19 19:00:00,
2013-08-19 16:00:00,-999.0,-99.9,-100.00,WSW,240,4.0,12.0,-999,-99.99,,,-99.99,,2013-08-19 21:00:00,
2013-08-19 20:52:00,69.0,58.0,-100.00,NNW,340,0.0,1.0,69,0.00,,,-99.99,,2013-08-20 01:52:00,
2013-08-19 21:02:00,69.0,58.0,-100.00,NNW,340,0.0,1.0,69,0.00,,,-99.99,,2013-08-20 02:02:00,
2013-08-19 21:11:00,69.0,58.0,-100.00,NNW,340,0.0,1.0,69,0.00,,,-99.99,,2013-08-20 02:11:00,
2013-08-19 21:52:00,68.0,58.0,-100.00,NE,40,0.0,2.0,72,0.00,,,-99.99,,2013-08-20 02:52:00,
2013-08-19 22:02:00,68.0,58.0,-100.00,NE,40,0.0,2.0,72,0.00,,,-99.99,,2013-08-20 03:02:00,
2013-08-19 22:11:00,68.0,58.0,-100.00,NE,40,0.0,2.0,72,0.00,,,-99.99,,2013-08-20 03:11:00,
2013-08-19 22:54:00,67.0,58.0,-100.00,NE,35,0.0,2.0,74,0.00,,,-99.99,,2013-08-20 03:54:00,
2013-08-19 23:03:00,67.0,58.0,-100.00,NE,35,0.0,2.0,74,0.00,,,-99.99,,2013-08-20 04:03:00,
2013-08-19 23:13:00,67.0,58.0,-100.00,NE,35,0.0,2.0,74,0.00,,,-99.99,,2013-08-20 04:13:00,
2013-08-19 23:53:00,66.0,58.0,-100.00,WNW,300,0.0,4.0,76,0.00,,,-99.99,,2013-08-20 04:53:00,